Home   Weather   Stockerau   Past weeks

Flag for Austria Past Weather in Stockerau, Lower Austria, Austria — Yesterday and Last 2 Weeks

Now
63 °F

Scattered clouds.


Feels Like: 63 °F
Forecast: 50 / 70 °F
Wind: 2 mph from North

Location: Tulln Airport

Current Time: Oct 1, 2016 at 10:47:29 AM

Latest Report: Oct 1, 2016 at 9:50 AM


Visibility: 9 mi

Pressure: 29.95 "Hg

Humidity: 77%

Dew Point: 55 °F

Location of StockerauLocation

Past Weather in Stockerau — Graph

°F

Stockerau Temperature Yesterday

Maximum temperature yesterday: 81 °F (at 1:50 PM)
Minimum temperature yesterday: 54 °F (at 5:50 AM)
Average temperature yesterday: 68 °F

High & Low Weather Summary for the Past Weeks

 TemperatureHumidityPressure
High81 °F (Sep 16, 1:50 PM)100% (Sep 19, 5:50 AM)30.39 "Hg (Sep 19, 5:50 AM)
Low41 °F (Sep 23, 5:50 AM)24% (Sep 29, 2:50 PM)29.74 "Hg (Sep 17, 5:50 AM)
Average62 °F68%30.09 "Hg
* Reported Sep 16 8:20 AM — Oct 1 8:50 AM, Stockerau, Weather by CustomWeather, © 2016

Note: Actual official high and low records may vary slightly from our data, if they occured in-between our weather recording intervals... More about our weather records

Advertising

Stockerau Weather History for the Previous 24 Hours

Scroll right to see more
 ConditionsComfort  
Time TempWeatherWind HumidityBarometerVisibility
8:50 AM
Sat, Oct 1
54 °FFog.1 mph94%29.95 "Hg1 mi
7:50 AM50 °FFog.1 mph94%29.95 "Hg1 mi
6:50 AM50 °FFog.2 mph94%29.95 "Hg1 mi
5:50 AM48 °FPassing clouds.1 mph100%29.95 "Hg6 mi
10:50 PM
Fri, Sep 30
59 °FPassing clouds.2 mph82%29.98 "Hg19 mi
9:50 PM61 °FPassing clouds.1 mph77%29.98 "Hg19 mi
8:50 PM64 °FPassing clouds.5 mph68%29.98 "Hg19 mi
7:50 PM66 °FPassing clouds.1 mph68%29.98 "Hg19 mi
6:50 PM70 °FPassing clouds.3 mph57%29.98 "Hg22 mi
5:50 PM75 °FPartly sunny.5 mph47%29.98 "Hg31 mi
4:50 PM79 °FPartly sunny.3 mph39%29.98 "Hg37 mi
3:50 PM79 °FPartly sunny.3 mph34%29.98 "Hg37 mi
2:50 PM81 °FScattered clouds.7 mph32%30.01 "Hg37 mi
1:50 PM81 °FPassing clouds.9 mph34%30.04 "Hg37 mi
12:50 PM79 °FPassing clouds.9 mph37%30.04 "Hg37 mi
11:50 AM75 °FPassing clouds.6 mph44%30.07 "Hg37 mi
10:50 AM73 °FPassing clouds.7 mph50%30.07 "Hg37 mi
Weather by CustomWeather, © 2016

See weather overviewHow to use our weather pages